Tracking 31027 objects as of 19-Jul-2025
HD Live streaming from Space Station
objects crossing your sky now

OBJECT F

Track OBJECT F now!
10-day predictions


NORAD ID: 44315
Int'l Code: 2019-032F
Perigee: 441.4 km
Apogee: 464.2 km
Inclination: 45.0 °
Period: 93.5 minutes
Semi major axis: 6823 km
RCS: Unknown
Launch date: June 5, 2019
Source: People's Republic of China (PRC)
Launch site: Yellow Sea Launch Area, China (YSLA)
Your satellite tracking list
STARLINK-1578
Track 1 satellite(s)




NASA's NSSDC Master Catalog

Two Line Element Set (TLE):
1 44315U 19032F   25199.81434491  .00024602  00000-0  60449-3 0  9992
2 44315  44.9861 325.5409 0016690 262.1120  97.7873 15.40142786337490
Source of the keplerian elements: AFSPC